Hourly Weather Ruzanovskiy

Today, 23 April, Friday

Time Temperature Precipitation Wind Pressure Humidity
00:00 +4°C° 0 mm 3 mps 766 mmHg 92%
01:00 +4°C° 0 mm 3 mps 766 mmHg 93%
02:00 +4°C° 0 mm 3 mps 766 mmHg 93%
03:00 +4°C° 0 mm 2 mps 766 mmHg 94%
04:00 +5°C° 0 mm 2 mps 766 mmHg 92%
05:00 +5°C° 0 mm 2 mps 766 mmHg 91%
06:00 +5°C° 0 mm 2 mps 766 mmHg 89%
07:00 +7°C° 0 mm 3 mps 765 mmHg 82%
08:00 +8°C° 0 mm 3 mps 765 mmHg 75%
09:00 +10°C° 0 mm 3 mps 765 mmHg 68%
10:00 +11°C° 0 mm 4 mps 765 mmHg 65%
11:00 +12°C° 0 mm 4 mps 764 mmHg 61%
12:00 +13°C° 0 mm 4 mps 764 mmHg 57%
13:00 +14°C° 0 mm 4 mps 763 mmHg 55%
14:00 +14°C° 0 mm 4 mps 763 mmHg 53%
15:00 +14°C° 0 mm 4 mps 762 mmHg 52%
16:00 +13°C° 0 mm 4 mps 762 mmHg 55%
17:00 +12°C° 0 mm 4 mps 762 mmHg 59%
18:00 +11°C° 0 mm 4 mps 761 mmHg 63%
19:00 +11°C° 0 mm 3 mps 761 mmHg 70%
20:00 +10°C° 0 mm 3 mps 761 mmHg 78%
21:00 +9°C° 0 mm 3 mps 761 mmHg 85%
22:00 +9°C° 0.3 mm 2 mps 760 mmHg 87%
23:00 +8°C° 0.3 mm 2 mps 760 mmHg 89%

Tomorrow, 24 April, Saturday

Time Temperature Precipitation Wind Pressure Humidity
00:00 +8°C° 0.3 mm 2 mps 759 mmHg 91%
01:00 +8°C° 0.5 mm 2 mps 759 mmHg 92%
02:00 +8°C° 0.5 mm 2 mps 759 mmHg 92%
03:00 +8°C° 0.5 mm 2 mps 758 mmHg 93%
04:00 +8°C° 0.2 mm 2 mps 758 mmHg 93%
05:00 +9°C° 0.2 mm 1 mps 757 mmHg 92%
06:00 +8°C° 0.2 mm 1 mps 757 mmHg 92%
07:00 +9°C° 0.1 mm 1 mps 757 mmHg 91%
08:00 +9°C° 0.1 mm 1 mps 756 mmHg 89%
09:00 +9°C° 0.1 mm 1 mps 756 mmHg 88%
10:00 +9°C° 0.1 mm 1 mps 756 mmHg 87%
11:00 +9°C° 0.1 mm 1 mps 756 mmHg 86%
12:00 +8°C° 0.1 mm 2 mps 756 mmHg 85%
13:00 +9°C° 0 mm 2 mps 756 mmHg 79%
14:00 +10°C° 0 mm 2 mps 755 mmHg 74%
15:00 +12°C° 0 mm 2 mps 755 mmHg 68%
16:00 +11°C° 0 mm 3 mps 755 mmHg 70%
17:00 +11°C° 0 mm 3 mps 754 mmHg 72%
18:00 +11°C° 0 mm 4 mps 754 mmHg 74%
19:00 +10°C° 0.1 mm 4 mps 754 mmHg 78%
20:00 +9°C° 0.1 mm 5 mps 753 mmHg 82%
21:00 +8°C° 0.1 mm 5 mps 753 mmHg 86%
22:00 +8°C° 0.1 mm 5 mps 753 mmHg 86%
23:00 +8°C° 0.1 mm 5 mps 753 mmHg 86%

Day after tomorrow, 25 April, Sunday

Time Temperature Precipitation Wind Pressure Humidity
00:00 +8°C° 0.1 mm 6 mps 752 mmHg 86%
01:00 +7°C° 0 mm 6 mps 752 mmHg 85%
02:00 +5°C° 0 mm 6 mps 753 mmHg 84%
03:00 +3°C° 0 mm 7 mps 753 mmHg 83%
04:00 +3°C° 0 mm 7 mps 753 mmHg 83%
05:00 +3°C° 0 mm 7 mps 753 mmHg 82%
06:00 +2°C° 0 mm 8 mps 753 mmHg 81%
07:00 +2°C° 0 mm 8 mps 753 mmHg 83%
08:00 +2°C° 0 mm 8 mps 754 mmHg 85%
09:00 +1°C° 0 mm 8 mps 754 mmHg 87%
10:00 +1°C° 0.2 mm 8 mps 755 mmHg 87%
11:00 +2°C° 0.2 mm 8 mps 756 mmHg 88%
12:00 +2°C° 0.2 mm 8 mps 756 mmHg 88%
13:00 +4°C° 0 mm 8 mps 757 mmHg 80%
14:00 +5°C° 0 mm 8 mps 757 mmHg 72%
15:00 +6°C° 0 mm 8 mps 758 mmHg 65%
16:00 +5°C° 0 mm 7 mps 758 mmHg 66%
17:00 +5°C° 0 mm 7 mps 758 mmHg 67%
18:00 +5°C° 0 mm 6 mps 759 mmHg 69%
19:00 +4°C° 0 mm 6 mps 759 mmHg 71%
20:00 +5°C° 0 mm 5 mps 759 mmHg 74%
21:00 +3°C° 0 mm 5 mps 760 mmHg 77%
22:00 +3°C° 0 mm 5 mps 760 mmHg 78%
23:00 +2°C° 0 mm 5 mps 760 mmHg 79%

26 April, Monday

Time Temperature Precipitation Wind Pressure Humidity
00:00 +3°C° 0 mm 4 mps 760 mmHg 81%
01:00 +1°C° 0 mm 4 mps 760 mmHg 81%
02:00 +2°C° 0 mm 3 mps 761 mmHg 82%
03:00 +2°C° 0 mm 3 mps 761 mmHg 82%
04:00 +2°C° 0 mm 3 mps 761 mmHg 80%
05:00 +4°C° 0 mm 2 mps 761 mmHg 78%
06:00 +4°C° 0 mm 2 mps 761 mmHg 76%
07:00 +5°C° 0 mm 3 mps 761 mmHg 67%
08:00 +8°C° 0 mm 3 mps 761 mmHg 58%
09:00 +8°C° 0 mm 4 mps 761 mmHg 49%
10:00 +10°C° 0 mm 4 mps 761 mmHg 45%
11:00 +11°C° 0 mm 4 mps 760 mmHg 41%
12:00 +12°C° 0 mm 3 mps 760 mmHg 37%
13:00 +12°C° 0 mm 3 mps 759 mmHg 37%
14:00 +12°C° 0 mm 3 mps 759 mmHg 37%
15:00 +14°C° 0 mm 2 mps 759 mmHg 36%
16:00 +13°C° 0 mm 2 mps 758 mmHg 40%
17:00 +13°C° 0 mm 1 mps 758 mmHg 45%
18:00 +12°C° 0 mm 1 mps 757 mmHg 49%
19:00 +11°C° 0 mm 1 mps 757 mmHg 51%
20:00 +9°C° 0 mm 0 mps 757 mmHg 52%
21:00 +8°C° 0 mm 0 mps 756 mmHg 54%
22:00 +8°C° 0 mm 0 mps 756 mmHg 56%
23:00 +9°C° 0 mm 1 mps 756 mmHg 58%

27 April, Tuesday

Time Temperature Precipitation Wind Pressure Humidity
00:00 +8°C° 0 mm 1 mps 755 mmHg 60%
01:00 +8°C° 0 mm 1 mps 755 mmHg 62%
02:00 +8°C° 0 mm 1 mps 755 mmHg 64%
03:00 +7°C° 0 mm 1 mps 754 mmHg 67%
04:00 +8°C° 0 mm 1 mps 754 mmHg 68%
05:00 +8°C° 0 mm 1 mps 754 mmHg 70%
06:00 +7°C° 0 mm 2 mps 754 mmHg 71%
07:00 +9°C° 0 mm 3 mps 754 mmHg 64%
08:00 +11°C° 0 mm 4 mps 754 mmHg 57%
09:00 +12°C° 0 mm 5 mps 754 mmHg 50%
10:00 +11°C° 0.1 mm 6 mps 754 mmHg 54%
11:00 +11°C° 0.1 mm 7 mps 754 mmHg 57%
12:00 +11°C° 0.1 mm 8 mps 754 mmHg 60%
13:00 +10°C° 0 mm 7 mps 754 mmHg 56%
14:00 +10°C° 0 mm 7 mps 754 mmHg 51%
15:00 +10°C° 0 mm 7 mps 754 mmHg 47%
16:00 +10°C° 0 mm 6 mps 754 mmHg 48%
17:00 +10°C° 0 mm 6 mps 754 mmHg 49%
18:00 +9°C° 0 mm 5 mps 754 mmHg 50%
19:00 +8°C° 0 mm 5 mps 755 mmHg 52%
20:00 +8°C° 0 mm 5 mps 755 mmHg 54%
21:00 +7°C° 0 mm 6 mps 755 mmHg 56%
22:00 +5°C° 0 mm 6 mps 755 mmHg 58%
23:00 +4°C° 0 mm 6 mps 755 mmHg 60%

28 April, Wednesday

Time Temperature Precipitation Wind Pressure Humidity
00:00 +3°C° 0 mm 6 mps 755 mmHg 62%
01:00 +3°C° 0 mm 6 mps 756 mmHg 66%
02:00 +2°C° 0 mm 6 mps 756 mmHg 70%
03:00 +2°C° 0 mm 6 mps 757 mmHg 74%
04:00 +2°C° 0 mm 6 mps 757 mmHg 74%
05:00 +2°C° 0 mm 5 mps 758 mmHg 73%
06:00 +3°C° 0 mm 5 mps 758 mmHg 73%
07:00 +4°C° 0 mm 6 mps 759 mmHg 65%
08:00 +7°C° 0 mm 6 mps 759 mmHg 57%
09:00 +8°C° 0 mm 6 mps 760 mmHg 50%
10:00 +9°C° 0 mm 6 mps 760 mmHg 45%
11:00 +10°C° 0 mm 7 mps 760 mmHg 41%
12:00 +11°C° 0 mm 7 mps 760 mmHg 37%
13:00 +11°C° 0 mm 7 mps 760 mmHg 35%
14:00 +11°C° 0 mm 7 mps 760 mmHg 34%
15:00 +12°C° 0 mm 7 mps 760 mmHg 33%
16:00 +11°C° 0 mm 6 mps 761 mmHg 37%
17:00 +12°C° 0 mm 5 mps 761 mmHg 42%
18:00 +11°C° 0 mm 4 mps 761 mmHg 46%
19:00 +10°C° 0 mm 4 mps 762 mmHg 51%
20:00 +8°C° 0 mm 3 mps 762 mmHg 56%
21:00 +7°C° 0 mm 3 mps 763 mmHg 60%
22:00 +7°C° 0 mm 3 mps 763 mmHg 62%
23:00 +6°C° 0 mm 2 mps 763 mmHg 64%
Show more